User: anonymous
Location: Unspecified
(0.0000°N, 0.0000°E)
Time: 13:42:07
(UTC+02:00)
Language:

ARIANE 5 R/B - Orbit

View from above orbital plane
View from above orbital plane
View from above satellite
View from above satellite

Ground track
Ground track

The orbit data is extracted from the following two-line orbital elements,

1 28787U 05028B   14259.37000096 -.00000023  00000-0  65765-3 0  5324
2 28787 007.0601 060.4201 7166644 164.6102 248.2920 02.26540496 75338
Epoch (UTC): 16 September 2014 08:52:48
Eccentricity: 0.7166644
inclination: 7.0601°
perigee height: 560 km
apogee height: 35661 km
right ascension of ascending node: 60.4201°
argument of perigee: 164.6102°
revolutions per day: 2.26540496
mean anomaly at epoch: 248.2920°
orbit number at epoch: 7533

The dashed part of the orbit path shows where the satellite is in the earth's shadow,  

DLR